#timestamp,LO_Frequency,Hit 
1500033615.4,286045790.8,N
1500033635.2,286045791.0,N
1500033655.1,286045790.6,N
1500033656.0,286045790.6,N
1500033675.8,286045788.5,N
1500033695.6,286045790.0,N
1500033715.5,286045788.5,N
1500033735.3,286045788.6,N
1500033755.2,286045789.8,N
1500033775.9,286045791.6,N
1500033795.7,286045794.4,N
1500033815.6,286045790.1,N
1500033835.4,286045792.7,N
1500033855.2,286045790.7,N
1500033875.1,286045794.8,N
1500033906.0,286045792.5,Y
1500033915.0,286046272.0,N
1500033915.9,286046272.0,N
1500033935.8,286046997.2,N
1500033955.6,286046997.3,N
1500033975.4,286046998.0,N
1500033995.3,286046997.2,N
1500034015.1,286046996.6,N
1500034035.9,286046998.5,N
1500034055.7,286047001.2,N
1500034075.5,286047002.5,N
1500034095.4,286047002.1,N
1500034115.2,286047000.8,N
1500034135.0,286047000.2,N
1500034135.9,286047000.2,N
1500034155.8,286047002.8,N
1500034175.6,286047001.3,N
1500034195.5,286046998.9,N
1500034215.3,286046996.5,N
1500034235.1,286046998.9,N
1500034255.9,286047000.8,N
1500034275.7,286046999.2,N
1500034295.5,286046998.7,N
1500034315.4,286047000.7,N
1500034335.2,286046998.3,N
1500034355.1,286046997.1,N
1500034356.0,286046997.1,N
1500034375.8,286046993.6,N
1500034395.6,286046993.3,N
1500034415.5,286046994.8,N
1500034435.3,286046993.5,N
1500034455.1,286046995.5,N
1500034475.9,286046993.7,N
1500034495.7,286046995.3,N
1500034515.6,286046993.9,N
1500034535.4,286046994.8,N
1500034555.2,286046994.1,N
1500034575.1,286046993.5,N
1500034576.0,286046993.5,N
1500034595.8,286046992.2,N
1500034615.6,286046991.7,N
1500034635.5,286046992.1,N
1500034655.3,286046990.2,N
1500034675.2,286046990.2,N
1500034695.9,286046988.5,N
1500034715.7,286046989.0,N
1500034735.6,286046991.1,N
1500034755.4,286046989.0,N
1500034775.2,286046989.6,N
1500034795.1,286046987.8,N
1500034796.0,286046987.8,N
1500034815.8,286046987.2,N
1500034835.7,286046988.7,N
1500034855.5,286046992.8,N
1500034875.3,286046987.5,N
1500034895.2,286046988.8,N
1500034915.0,286046989.9,N
1500034915.9,286046989.9,N
1500034935.7,286046989.0,N
1500034955.6,286046989.1,N
1500035005.5,286046991.4,Y
1500035015.4,286046991.9,N
1500035035.2,286046996.7,N
1500035055.1,286046998.3,N
1500035056.0,286046998.3,N
1500035075.8,286046999.0,N
1500035095.6,286046996.5,N
1500035115.5,286046999.1,N
1500035135.3,286046999.2,N
1500035155.1,286046999.0,N
1500035175.9,286046998.8,N
1500035195.7,286046996.9,N
1500035215.6,286046999.4,N
1500035235.4,286046997.2,N
1500035255.2,286046996.8,N
1500035275.1,286046997.5,N
1500035276.0,286046997.5,N
1500035295.8,286046999.5,N
1500035315.6,286046997.3,N
1500035335.5,286046997.1,N
1500035355.3,286046997.1,N
1500035375.2,286046997.4,N
1500035395.9,286046997.4,N
1500035415.7,286046997.5,N
1500035435.6,286046999.5,N
1500035455.4,286046997.1,N
1500035475.2,286046995.3,N
1500035495.1,286046996.1,N
1500035496.0,286046996.1,N
1500035515.8,286046993.5,N
1500035535.7,286046994.3,N
1500035555.5,286046993.6,N
1500035575.3,286046996.1,N
1500035595.2,286046996.3,N
1500035615.0,286046993.8,N
1500035615.9,286046993.8,N
1500035635.7,286046996.2,N
1500035655.6,286046996.3,N
1500035675.4,286046995.9,N
1500035695.3,286046994.1,N
1500035715.1,286046992.4,N
1500035716.0,286046992.4,N
1500035735.8,286046994.1,N
1500035755.7,286046990.7,N
1500035775.5,286046990.2,N
1500035795.3,286046990.6,N
1500035815.2,286046990.3,N
1500035835.0,286046991.3,N
1500035835.9,286046991.3,N
1500035855.8,286046991.1,N
1500035875.6,286046990.3,N
1500035895.4,286046991.0,N
1500035915.3,286046990.4,N
1500035935.1,286046990.8,N
1500035955.8,286046992.7,N
1500035975.7,286046992.3,N
1500035995.5,286046992.8,N
1500036015.4,286046990.2,N
1500036035.2,286046990.5,N
1500036055.0,286046991.0,N
1500036055.9,286046991.0,N
1500036075.8,286046990.1,N
1500036095.6,286046992.8,N
1500036115.4,286046990.6,N
1500036135.3,286046989.0,N
1500036155.1,286046989.4,N
1500036175.9,286046989.5,N
1500036195.7,286046987.1,N
1500036215.5,286046986.6,N
1500036235.4,286046988.0,N
1500036255.2,286046987.6,N
1500036275.0,286046988.4,N
1500036275.9,286046988.4,N
1500036295.8,286046985.6,N
1500036315.6,286046985.8,N
1500036335.5,286046985.5,N
1500036355.3,286046986.0,N
1500036375.1,286046986.0,N
1500036395.9,286046985.8,N
1500036415.7,286046985.4,N
1500036435.5,286046987.5,N
1500036455.4,286046987.4,N
1500036475.2,286046989.6,N
1500036495.1,286046991.6,N
1500036496.0,286046991.6,N
1500036515.8,286046986.9,N
1500036535.6,286046988.3,N
1500036555.5,286046985.7,N
1500036575.3,286046987.8,N
1500036595.1,286046989.3,N
1500036615.9,286046987.9,N
1500036635.7,286046985.4,N
1500036655.6,286046988.4,N
1500036675.4,286046987.4,N
1500036695.2,286046989.0,N
1500036715.1,286046989.4,N
1500036716.0,286046989.4,N
1500036735.8,286046989.8,N
1500036755.7,286046988.8,N
1500036775.5,286046988.8,N
1500036795.3,286046991.5,N
1500036815.2,286046989.9,N
1500036835.0,286046987.4,N
1500036835.9,286046987.4,N
1500036855.7,286046990.0,N
1500036875.6,286046987.6,N
1500036895.4,286046990.0,N
1500036915.3,286046989.9,N
1500036935.1,286046989.8,N
1500036936.0,286046989.8,N
1500036955.8,286046989.8,N
1500036975.7,286046987.5,N
1500036995.5,286046990.6,N
1500037015.3,286046990.5,N
1500037035.2,286046991.2,N
1500037055.0,286046990.3,N
1500037055.9,286046990.3,N
1500037075.8,286046986.5,N
1500037095.6,286046985.0,N
1500037115.4,286046984.6,N
1500037135.3,286046984.8,N
1500037155.1,286046984.6,N
1500037175.8,286046990.1,N
1500037195.7,286046992.1,N
